GW5296 Weather Reports


time (UTC)temp
F
wind
direction
speed
knots
gust
knots
rain 1hr
in
rain 24hr
in
rain mn
in
humidity
%
barometer
mb
20260505140611 83 328 2.6 2.6 0.00 0.00 0.00 70 1009.0
20260505140111 83 226 0.9 0.9 0.00 0.00 0.00 70 1009.0
20260505130111 85 11 4.3 5.2 0.00 0.00 0.00 68 1009.0
20260505124612 86 342 7.8 8.7 0.00 0.00 0.00 64 1008.0
20260505124114 87 326 7.8 8.7 0.00 0.00 0.00 62 1008.0
20260505123612 88 343 7.8 11.3 0.00 0.00 0.00 61 1008.0
20260505123112 88 0 7.8 11.3 0.00 0.00 0.00 59 1008.0
20260505122611 88 338 3.5 3.5 0.00 0.00 0.00 59 1008.0
20260505122111 88 6 7.0 8.7 0.00 0.00 0.00 59 1008.0
20260505121614 88 4 3.5 5.2 0.00 0.00 0.00 60 1008.0
20260505121114 89 21 8.7 12.2 0.00 0.00 0.00 59 1008.0
20260505120611 89 2 8.7 8.7 0.00 0.00 0.00 58 1007.0
20260505120112 89 352 8.7 9.6 0.00 0.00 0.00 58 1007.0
20260505115612 89 326 7.8 8.7 0.00 0.00 0.00 58 1007.0
20260505115111 89 358 3.5 5.2 0.00 0.00 0.00 57 1007.0
20260505114611 89 321 5.2 7.0 0.00 0.00 0.00 57 1007.0
20260505114111 89 6 8.7 9.6 0.00 0.00 0.00 57 1007.0
20260505113611 90 326 8.7 9.6 0.00 0.00 0.00 57 1007.0
20260505113111 90 6 7.0 9.6 0.00 0.00 0.00 57 1007.0
20260505112611 90 1 7.8 9.6 0.00 0.00 0.00 56 1006.0
20260505112112 90 37 9.6 13.9 0.00 0.00 0.00 57 1006.0
20260505111612 91 17 7.8 11.3 0.00 0.00 0.00 55 1006.0
20260505111113 93 340 10.4 13.9 0.00 0.00 0.00 54 1006.0
20260505110611 94 328 5.2 6.1 0.00 0.00 0.00 55 1006.0
20260505110112 94 306 3.5 5.2 0.00 0.00 0.00 54 1006.0
20260505102113 96 283 3.5 5.2 0.00 0.00 0.00 50 1006.0
20260505101611 97 274 3.5 5.2 0.00 0.00 0.00 49 1006.0
20260505101112 97 221 2.6 2.6 0.00 0.00 0.00 48 1006.0
20260505100612 97 247 3.5 3.5 0.00 0.00 0.00 48 1006.0
20260505100111 98 244 0.9 0.9 0.00 0.00 0.00 49 1006.0
20260505095614 98 307 7.0 7.8 0.00 0.00 0.00 49 1006.0
20260505095111 98 265 4.3 6.1 0.00 0.00 0.00 50 1006.0
20260505094612 96 296 5.2 7.0 0.00 0.00 0.00 52 1006.0
20260505094112 96 241 0.9 1.7 0.00 0.00 0.00 51 1006.0
20260505093612 98 309 1.7 1.7 0.00 0.00 0.00 43 1007.0
20260505093111 97 209 0.0 0.0 0.00 0.00 0.00 43 1006.0
20260505092612 98 145 4.3 5.2 0.00 0.00 0.00 43 1006.0
20260505092111 99 198 1.7 1.7 0.00 0.00 0.00 42 1006.0
20260505091612 98 70 0.9 1.7 0.00 0.00 0.00 42 1006.0
20260505091111 99 42 1.7 2.6 0.00 0.00 0.00 44 1006.0
20260505090612 99 234 0.9 0.9 0.00 0.00 0.00 43 1006.0
20260505090111 98 250 2.6 2.6 0.00 0.00 0.00 44 1006.0
20260505085614 98 123 6.1 7.0 0.00 0.00 0.00 47 1007.0
20260505085112 99 153 0.0 0.0 0.00 0.00 0.00 45 1007.0
20260505084611 97 228 2.6 2.6 0.00 0.00 0.00 47 1007.0
20260505084111 98 166 1.7 2.6 0.00 0.00 0.00 48 1007.0
20260505083611 96 199 2.6 2.6 0.00 0.00 0.00 49 1007.0
20260505083111 97 267 1.7 1.7 0.00 0.00 0.00 49 1007.0
20260505082612 96 212 0.9 1.7 0.00 0.00 0.00 48 1007.0
20260505082113 97 126 6.1 7.0 0.00 0.00 0.00 51 1007.0
20260505081613 98 298 1.7 2.6 0.00 0.00 0.00 46 1007.0
20260505081113 96 51 1.7 2.6 0.00 0.00 0.00 48 1007.0
20260505080613 96 181 2.6 3.5 0.00 0.00 0.00 51 1008.0
20260505080113 98 190 0.9 0.9 0.00 0.00 0.00 47 1008.0
20260505075614 98 217 2.6 2.6 0.00 0.00 0.00 47 1008.0
20260505075116 95 138 0.0 0.0 0.00 0.00 0.00 49 1008.0
20260505074613 96 64 0.9 1.7 0.00 0.00 0.00 51 1008.0
20260505074113 96 86 1.7 3.5 0.00 0.00 0.00 51 1008.0
20260505073613 96 58 3.5 3.5 0.00 0.00 0.00 50 1008.0
20260505073113 96 135 0.9 1.7 0.00 0.00 0.00 52 1008.0
20260505072611 96 250 0.9 1.7 0.00 0.00 0.00 52 1008.0
20260505072112 97 131 0.0 0.9 0.00 0.00 0.00 50 1008.0
20260505071613 96 221 2.6 2.6 0.00 0.00 0.00 50 1009.0
20260505071111 96 141 2.6 2.6 0.00 0.00 0.00 50 1009.0
20260505070613 95 220 3.5 3.5 0.00 0.00 0.00 51 1009.0
20260505070112 95 198 4.3 7.0 0.00 0.00 0.00 53 1009.0
20260505065612 94 108 3.5 5.2 0.00 0.00 0.00 56 1009.0
20260505065114 94 130 3.5 5.2 0.00 0.00 0.00 55 1009.0
20260505064615 94 127 0.9 1.7 0.00 0.00 0.00 54 1009.0
20260505064113 92 238 1.7 1.7 0.00 0.00 0.00 56 1009.0
20260505063614 93 179 2.6 3.5 0.00 0.00 0.00 58 1009.0
20260505063112 93 191 1.7 2.6 0.00 0.00 0.00 57 1010.0
20260505062613 93 151 4.3 6.1 0.00 0.00 0.00 56 1010.0
20260505062113 93 241 1.7 1.7 0.00 0.00 0.00 57 1010.0
20260505061613 92 29 1.7 1.7 0.00 0.00 0.00 58 1010.0
20260505061111 91 356 1.7 1.7 0.00 0.00 0.00 57 1010.0
20260505060613 92 110 1.7 2.6 0.00 0.00 0.00 56 1010.0
20260505060112 91 176 1.7 1.7 0.00 0.00 0.00 57 1010.0
20260505055611 90 212 2.6 2.6 0.00 0.00 0.00 58 1010.0
20260505055112 91 221 0.9 0.9 0.00 0.00 0.00 58 1010.0
20260505054611 92 192 1.7 1.7 0.00 0.00 0.00 58 1010.0
20260505054112 90 240 1.7 2.6 0.00 0.00 0.00 60 1010.0
20260505053612 90 164 1.7 2.6 0.00 0.00 0.00 61 1010.0
20260505053112 91 172 1.7 1.7 0.00 0.00 0.00 60 1010.0
20260505052612 91 97 0.0 0.0 0.00 0.00 0.00 56 1010.0
20260505052111 90 209 0.9 0.9 0.00 0.00 0.00 59 1011.0
20260505051611 89 197 1.7 2.6 0.00 0.00 0.00 62 1011.0
20260505051112 89 205 2.6 3.5 0.00 0.00 0.00 62 1011.0
20260505050612 89 210 4.3 5.2 0.00 0.00 0.00 62 1011.0
20260505050112 89 221 0.0 0.0 0.00 0.00 0.00 61 1011.0
20260505041613 88 227 2.6 2.6 0.00 0.00 0.00 62 1011.0
20260505041112 88 179 0.9 1.7 0.00 0.00 0.00 62 1011.0
20260505040612 88 268 1.7 2.6 0.00 0.00 0.00 63 1011.0
20260505040112 89 293 0.9 1.7 0.00 0.00 0.00 63 1011.0
20260505035614 87 179 0.0 0.0 0.00 0.00 0.00 64 1011.0
20260505035113 86 276 0.0 0.0 0.00 0.00 0.00 64 1011.0
20260505034611 86 163 0.9 0.9 0.00 0.00 0.00 65 1011.0
20260505034113 86 137 1.7 2.6 0.00 0.00 0.00 64 1011.0
20260505033611 86 172 1.7 1.7 0.00 0.00 0.00 64 1011.0
20260505033114 85 134 0.0 0.0 0.00 0.00 0.00 63 1011.0
20260505032611 86 180 0.9 1.7 0.00 0.00 0.00 63 1011.0
20260505032110 85 215 1.7 1.7 0.00 0.00 0.00 64 1011.0
20260505031612 85 244 2.6 2.6 0.00 0.00 0.00 65 1011.0
20260505031112 84 252 0.9 0.9 0.00 0.00 0.00 66 1011.0
20260505030612 84 212 1.7 2.6 0.00 0.00 0.00 66 1011.0
20260505030113 84 197 1.7 1.7 0.00 0.00 0.00 66 1011.0
20260505025613 84 215 1.7 2.6 0.00 0.00 0.00 67 1011.0
20260505025111 82 236 1.7 1.7 0.00 0.00 0.00 69 1011.0
20260505024612 82 280 0.9 0.9 0.00 0.00 0.00 71 1011.0
20260505024113 82 227 1.7 1.7 0.00 0.00 0.00 70 1011.0
20260505023612 82 243 1.7 1.7 0.00 0.00 0.00 70 1011.0
20260505023112 82 235 1.7 1.7 0.00 0.00 0.00 70 1011.0
20260505022611 82 212 0.0 0.0 0.00 0.00 0.00 70 1011.0
20260505022112 81 225 0.0 0.0 0.00 0.00 0.00 71 1011.0
20260505021613 81 247 2.6 2.6 0.00 0.00 0.00 71 1011.0
20260505021111 81 239 1.7 2.6 0.00 0.00 0.00 71 1011.0
20260505020611 81 190 0.9 0.9 0.00 0.00 0.00 71 1011.0
20260505020111 81 225 0.0 0.0 0.00 0.00 0.00 73 1011.0
20260505015611 81 256 0.0 0.0 0.00 0.00 0.00 73 1011.0
20260505015111 80 302 0.9 1.7 0.00 0.00 0.00 73 1011.0
20260505014611 80 241 0.0 0.0 0.00 0.00 0.00 75 1011.0
20260505014112 80 234 0.0 0.0 0.00 0.00 0.00 76 1011.0
20260505013612 79 223 0.0 0.0 0.00 0.00 0.00 77 1011.0
20260505013111 79 228 0.0 0.0 0.00 0.00 0.00 77 1011.0
20260505012611 79 214 0.0 0.0 0.00 0.00 0.00 77 1011.0
20260505012111 79 217 0.0 0.0 0.00 0.00 0.00 77 1011.0
20260505011611 79 217 0.0 0.0 0.00 0.00 0.00 77 1010.0
20260505011112 79 217 0.0 0.0 0.00 0.00 0.00 77 1010.0
20260505010611 79 217 0.0 0.0 0.00 0.00 0.00 78 1010.0
20260505010112 79 218 0.0 0.0 0.00 0.00 0.00 79 1010.0
20260505005612 79 235 0.0 0.0 0.00 0.00 0.00 78 1010.0
20260505005111 78 220 0.0 0.0 0.00 0.00 0.00 77 1010.0
20260505004611 78 219 0.0 0.0 0.00 0.00 0.00 78 1010.0
20260505004113 78 221 0.0 0.0 0.00 0.00 0.00 78 1010.0
20260505003611 78 244 0.0 0.0 0.00 0.00 0.00 77 1010.0
20260505003113 78 241 0.0 0.0 0.00 0.00 0.00 78 1010.0
20260505002612 78 284 0.0 0.0 0.00 0.00 0.00 77 1010.0
20260505002113 79 213 0.0 0.0 0.00 0.00 0.00 77 1010.0
20260505001615 79 217 0.0 0.0 0.00 0.00 0.00 77 1010.0
20260505001113 78 241 0.0 0.9 0.00 0.00 0.00 77 1010.0
20260505000611 78 328 1.7 1.7 0.00 0.00 0.00 78 1010.0
20260505000112 78 319 1.7 1.7 0.00 0.00 0.00 79 1010.0
20260504235613 78 324 1.7 1.7 0.00 0.00 0.00 78 1010.0
20260504235111 79 354 2.6 2.6 0.00 0.00 0.00 77 1010.0
20260504234611 79 351 2.6 2.6 0.00 0.00 0.00 77 1010.0
20260504234111 79 339 0.9 1.7 0.00 0.00 0.00 77 1010.0
20260504233611 78 339 0.9 0.9 0.00 0.00 0.00 78 1010.0
20260504233112 78 324 0.0 0.0 0.00 0.00 0.00 78 1010.0
20260504232611 79 210 0.0 0.0 0.00 0.00 0.00 79 1010.0
20260504232113 79 215 0.0 0.0 0.00 0.00 0.00 78 1010.0
20260504231612 79 218 0.0 0.0 0.00 0.00 0.00 78 1010.0
20260504231111 79 234 0.9 0.9 0.00 0.00 0.00 78 1010.0
20260504230612 79 213 0.9 0.9 0.00 0.00 0.00 78 1010.0
20260504230112 79 213 0.0 0.9 0.00 0.00 0.00 77 1010.0
20260504225611 79 213 0.0 0.0 0.00 0.00 0.00 77 1010.0
20260504225112 79 217 0.0 0.0 0.00 0.00 0.00 78 1010.0
20260504224611 79 212 0.0 0.0 0.00 0.00 0.00 78 1010.0
20260504224111 79 216 0.0 0.0 0.00 0.00 0.00 78 1009.0
20260504223612 79 204 0.0 0.0 0.00 0.00 0.00 77 1009.0
20260504223112 79 201 0.0 0.0 0.00 0.00 0.00 77 1009.0
20260504222614 79 22 0.9 1.7 0.00 0.00 0.00 76 1009.0
20260504222113 79 158 0.0 0.0 0.00 0.00 0.00 75 1009.0
20260504221613 79 244 0.0 0.0 0.00 0.00 0.00 74 1009.0
20260504221112 79 224 0.0 0.0 0.00 0.00 0.00 74 1009.0
20260504220612 79 216 0.0 0.0 0.00 0.00 0.00 74 1009.0
20260504220111 79 232 0.9 0.9 0.00 0.00 0.00 75 1009.0
20260504215614 79 305 0.9 0.9 0.00 0.00 0.00 74 1009.0
20260504215112 79 192 0.0 0.0 0.00 0.00 0.00 75 1009.0
20260504214611 79 198 0.0 0.0 0.00 0.00 0.00 75 1009.0
20260504214111 79 185 0.0 0.0 0.00 0.00 0.00 75 1009.0
20260504213611 80 181 0.0 0.0 0.00 0.00 0.00 75 1009.0
20260504213113 79 195 0.0 0.0 0.00 0.00 0.00 74 1009.0
20260504212613 79 195 0.0 0.0 0.00 0.00 0.00 74 1009.0
20260504212115 80 212 0.0 0.0 0.00 0.00 0.00 75 1009.0
20260504211612 79 215 0.0 0.0 0.00 0.00 0.00 75 1009.0
20260504211113 79 195 0.0 0.0 0.00 0.00 0.00 76 1009.0
20260504210613 79 187 0.0 0.0 0.00 0.00 0.00 76 1009.0
20260504210113 79 226 0.0 0.0 0.00 0.00 0.00 74 1009.0
20260504205613 79 237 0.9 0.9 0.00 0.00 0.00 75 1009.0
20260504205111 79 217 0.0 0.0 0.00 0.00 0.00 76 1009.0
20260504204613 79 218 0.0 0.0 0.00 0.00 0.00 76 1009.0
20260504204113 79 231 0.0 0.0 0.00 0.00 0.00 76 1009.0
20260504203613 79 209 0.0 0.0 0.00 0.00 0.00 76 1009.0
20260504203114 80 208 0.0 0.0 0.00 0.00 0.00 76 1009.0
20260504202612 80 247 1.7 1.7 0.00 0.00 0.00 75 1009.0
20260504202116 80 211 0.9 1.7 0.00 0.00 0.00 75 1009.0
20260504201611 80 229 0.0 0.0 0.00 0.00 0.00 74 1010.0
20260504201112 80 203 0.9 0.9 0.00 0.00 0.00 74 1009.0
20260504200614 80 225 0.0 0.0 0.00 0.00 0.00 72 1009.0
20260504200114 80 227 0.0 0.9 0.00 0.00 0.00 72 1009.0
20260504195612 80 246 0.9 0.9 0.00 0.00 0.00 72 1009.0
20260504195115 80 247 0.9 0.9 0.00 0.00 0.00 71 1009.0
20260504194613 80 336 1.7 1.7 0.00 0.00 0.00 71 1009.0
20260504194113 80 261 0.0 0.0 0.00 0.00 0.00 71 1009.0
20260504193614 80 217 0.0 0.0 0.00 0.00 0.00 72 1009.0
20260504193113 80 209 0.0 0.0 0.00 0.00 0.00 72 1009.0
20260504192612 80 208 0.0 0.0 0.00 0.00 0.00 72 1009.0
20260504192111 80 192 0.0 0.0 0.00 0.00 0.00 71 1010.0
20260504191614 80 175 0.9 0.9 0.00 0.00 0.00 71 1010.0
20260504191112 81 161 0.9 0.9 0.00 0.00 0.00 71 1010.0
20260504190612 81 160 0.0 0.0 0.00 0.00 0.00 71 1010.0
20260504190113 81 185 0.0 0.0 0.00 0.00 0.00 70 1010.0
20260504185613 81 201 0.0 0.0 0.00 0.00 0.00 69 1010.0
20260504185114 81 203 0.0 0.0 0.00 0.00 0.00 69 1010.0
20260504184612 81 196 0.9 0.9 0.00 0.00 0.00 69 1010.0
20260504184113 81 216 0.9 0.9 0.00 0.00 0.00 69 1010.0
20260504183612 81 210 0.0 0.0 0.00 0.00 0.00 70 1010.0
20260504183113 81 205 0.9 0.9 0.00 0.00 0.00 69 1010.0
20260504182613 81 180 1.7 1.7 0.00 0.00 0.00 69 1010.0
20260504182115 81 180 1.7 1.7 0.00 0.00 0.00 69 1010.0
20260504181614 81 192 0.9 1.7 0.00 0.00 0.00 70 1010.0
20260504181114 81 189 0.9 0.9 0.00 0.00 0.00 70 1010.0
20260504180613 81 166 0.0 0.0 0.00 0.00 0.00 70 1010.0
20260504180112 82 192 0.0 0.0 0.00 0.00 0.00 69 1010.0
20260504175613 82 192 0.0 0.0 0.00 0.00 0.00 69 1010.0
20260504175115 82 159 0.0 0.9 0.00 0.00 0.00 69 1010.0
20260504174614 82 190 0.0 0.9 0.00 0.00 0.00 69 1010.0
20260504174113 82 179 0.9 1.7 0.00 0.00 0.00 69 1010.0
20260504173614 82 174 0.0 0.0 0.00 0.00 0.00 69 1010.0
20260504173114 82 179 1.7 1.7 0.00 0.00 0.00 69 1010.0
20260504172613 82 182 1.7 1.7 0.00 0.00 0.00 69 1010.0
20260504172114 82 158 2.6 2.6 0.00 0.00 0.00 69 1011.0
20260504171614 82 188 0.0 0.0 0.00 0.00 0.00 69 1010.0
20260504171113 82 187 0.0 0.0 0.00 0.00 0.00 69 1010.0
20260504170613 82 207 1.7 1.7 0.00 0.00 0.00 68 1010.0
20260504170113 82 186 0.9 0.9 0.00 0.00 0.00 68 1010.0
20260504160113 82 176 1.7 1.7 0.00 0.00 0.00 69 1010.0
20260504151113 83 133 2.6 3.5 0.00 0.00 0.00 67 1010.0
20260504150614 82 111 0.9 1.7 0.00 0.00 0.00 68 1010.0
20260504150113 83 174 0.9 1.7 0.00 0.00 0.00 68 1010.0